User: anonymous   Login
Location: Unspecified
(0.0000°N, 0.0000°E)
Time: 12:49:31
(UTC+00:00)
Language:

Freja - Orbit

View from above orbital plane
View from above orbital plane
View from above satellite
View from above satellite

Ground track
Ground track

The orbit data is extracted from the following two-line orbital elements,

1 22161U 92064A   17229.57542357 -.00000030 +00000-0 +33895-4 0  9998
2 22161 062.9943 267.3377 0755069 323.7731 031.4315 13.30272786204608
Epoch (UTC): 17 August 2017 13:48:36
Eccentricity: 0.0755069
inclination: 62.9943°
perigee height: 577 km
apogee height: 1714 km
right ascension of ascending node: 267.3377°
argument of perigee: 323.7731°
revolutions per day: 13.30272786
mean anomaly at epoch: 31.4315°
orbit number at epoch: 20460

The dashed part of the orbit path shows where the satellite is in the earth's shadow,  

DLR